Language: 


Des rapports , des résumés tant et plus, au choix de chacun....


Données statistiques de la station
Quotidien Rapport Octobre 10, 2017 Unités:  Anglais    Métrique   les deux
« Précédent Jour
Suivant Jour »
Quotidien Hebdomadaire Mensuel Annuel Actuel
  Haut: Bas: Moyen:
Température: 66.4 °F 32 °F 52.7 °F
Pt de rosée: 60.8 °F 55.4 °F 56.5 °F
Humidité: 98 % 0 % 65 %
Vitesse du vent: 16.3 mph 0 mph 5.3 mph
Rafales: 20.4 mph - -
Vent:- - WSW
Pression: 30 in 29.9 in -
Précipitation: 0.01 in    
Historical Graphs
 
 
Données statistiques pour Octobre 10, 2017
Heure Température Point de rosée Pression Vent Vitesse du vent Refales Humidité Pluie (taux horaire)
00:00 56.7 °F 55.4 °F 30 in WSW 3.4 mph 7.4 mph 95 % 0 in
00:05 56.7 °F 55.4 °F 30 in WSW 3.1 mph 6.9 mph 95 % 0 in
00:10 56.7 °F 55.4 °F 30 in South 4.3 mph 6.9 mph 95 % 0 in
00:15 56.7 °F 55.4 °F 30 in SSW 2.5 mph 6.3 mph 95 % 0 in
00:20 56.7 °F 55.4 °F 30 in WSW 2.7 mph 6.3 mph 95 % 0 in
00:21 56.7 °F 55.4 °F 30 in SSW 4.9 mph 6.3 mph 95 % 0 in
00:26 56.7 °F 55.4 °F 30 in Calm   5.6 mph 95 % 0 in
00:31 56.7 °F 55.4 °F 30 in Calm   5.6 mph 95 % 0 in
00:36 56.7 °F 55.4 °F 30 in SW 4.3 mph 6 mph 95 % 0 in
00:41 56.7 °F 55.4 °F 30 in SW 4.9 mph 6 mph 95 % 0 in
00:46 56.7 °F 55.4 °F 30 in SSW 4 mph 5.6 mph 95 % 0 in
00:51 56.7 °F 55.4 °F 30 in Calm   5.6 mph 95 % 0 in
00:56 56.7 °F 55.4 °F 30 in SSW 5.6 mph 5.8 mph 95 % 0 in
01:01 56.7 °F 55.4 °F 30 in SSW 0.9 mph 5.8 mph 95 % 0 in
01:06 56.7 °F 55.4 °F 30 in SW 3.6 mph 7.2 mph 95 % 0 in
01:11 56.7 °F 55.4 °F 30 in Calm   7.2 mph 95 % 0 in
01:16 56.7 °F 55.4 °F 30 in SW 4 mph 7.2 mph 95 % 0 in
01:21 56.7 °F 55.4 °F 30 in SW 3.8 mph 7.2 mph 95 % 0 in
01:26 56.7 °F 55.4 °F 30 in SSW 4.9 mph 6.3 mph 95 % 0 in
01:31 56.7 °F 55.4 °F 30 in Calm   6.3 mph 95 % 0 in
01:36 56.7 °F 55.4 °F 30 in WSW 4.3 mph 6 mph 95 % 0 in
01:41 56.7 °F 55.4 °F 30 in SW 4.5 mph 8.1 mph 95 % 0 in
01:47 56.7 °F 55.4 °F 30 in WSW 4.3 mph 8.1 mph 95 % 0 in
01:52 56.7 °F 55.4 °F 30 in SW 4.3 mph 7.8 mph 95 % 0 in
01:57 56.7 °F 55.4 °F 30 in WSW 2.7 mph 6.5 mph 95 % 0 in
02:02 56.7 °F 55.4 °F 30 in SW 4.7 mph 6.5 mph 95 % 0 in
02:07 56.7 °F 55.4 °F 30 in WSW 4 mph 7.4 mph 95 % 0 in
02:12 56.7 °F 55.4 °F 30 in SW 4.3 mph 7.4 mph 95 % 0 in
02:17 56.7 °F 55.4 °F 30 in SW 4 mph 5.6 mph 95 % 0 in
02:22 56.7 °F 55.4 °F 30 in WSW 5.8 mph 5.8 mph 95 % 0 in
02:27 56.7 °F 55.4 °F 30 in SW 3.4 mph 5.8 mph 95 % 0 in
02:32 56.7 °F 55.4 °F 30 in WSW 1.1 mph 5.8 mph 95 % 0 in
02:37 56.7 °F 55.4 °F 30 in Calm   5.4 mph 95 % 0 in
02:42 56.7 °F 55.4 °F 30 in Calm   4.9 mph 95 % 0 in
02:47 56.7 °F 55.4 °F 30 in Calm   3.4 mph 95 % 0 in
02:52 56.7 °F 55.4 °F 30 in Calm   3.6 mph 95 % 0 in
02:57 56.7 °F 55.4 °F 30 in Calm   4.9 mph 95 % 0 in
03:02 32 °F 55.4 °F 30 in SSW 3.6 mph 4.9 mph 0 % 0 in
03:07 32 °F 55.4 °F 30 in SW 2.7 mph 5.6 mph 0 % 0 in
03:13 32 °F 55.4 °F 30 in Calm   5.6 mph 0 % 0 in
03:18 32 °F 55.4 °F 30 in Calm   4 mph 0 % 0 in
03:23 32 °F 55.4 °F 30 in Calm   4 mph 0 % 0 in
03:28 32 °F 55.4 °F 30 in Calm   6 mph 0 % 0 in
03:33 32 °F 55.4 °F 30 in Calm   6 mph 0 % 0 in
03:38 32 °F 55.4 °F 30 in Calm   3.8 mph 0 % 0 in
03:43 32 °F 55.4 °F 30 in Calm   4 mph 0 % 0 in
03:48 32 °F 55.4 °F 30 in WSW 4.9 mph 4.9 mph 0 % 0 in
03:53 32 °F 55.4 °F 30 in WSW 2.2 mph 4.9 mph 0 % 0 in
03:58 32 °F 55.4 °F 30 in Calm   5.4 mph 0 % 0 in
04:03 32 °F 55.4 °F 30 in WSW 5.4 mph 5.8 mph 0 % 0 in
04:08 32 °F 55.4 °F 30 in WSW 3.6 mph 6.3 mph 0 % 0 in
04:13 32 °F 55.4 °F 30 in WSW 5.8 mph 6.3 mph 0 % 0 in
04:18 32 °F 55.4 °F 30 in WSW 4 mph 5.8 mph 0 % 0 in
04:23 32 °F 55.4 °F 30 in West 5.4 mph 6.3 mph 0 % 0 in
04:28 32 °F 55.4 °F 30 in WSW 4.9 mph 6 mph 0 % 0 in
04:33 32 °F 55.4 °F 30 in West 6 mph 7.6 mph 0 % 0 in
04:39 32 °F 55.4 °F 30 in WSW 3.8 mph 7.6 mph 0 % 0 in
04:44 32 °F 55.4 °F 30 in Calm   5.8 mph 0 % 0 in
04:49 32 °F 55.4 °F 30 in West 3.1 mph 4.7 mph 0 % 0 in
04:54 32 °F 55.4 °F 30 in Calm   4.7 mph 0 % 0 in
04:59 32 °F 55.4 °F 30 in WSW 3.6 mph 5.6 mph 0 % 0 in
05:04 32 °F 55.4 °F 30 in West 4.3 mph 6 mph 0 % 0 in
05:09 32 °F 55.4 °F 30 in Calm   6 mph 0 % 0 in
05:15 32 °F 55.4 °F 30 in Calm   4.9 mph 0 % 0 in
05:20 32 °F 55.4 °F 30 in WSW 4 mph 4.9 mph 0 % 0 in
05:23 32 °F 55.4 °F 30 in WSW 4 mph 4.3 mph 0 % 0 in
05:24 32 °F 55.4 °F 30 in WSW 4.9 mph 4.9 mph 0 % 0 in
05:29 32 °F 55.4 °F 30 in WSW 3.8 mph 5.4 mph 0 % 0 in
05:34 32 °F 55.4 °F 30 in Calm   5.4 mph 0 % 0 in
05:39 32 °F 55.4 °F 30 in WSW 5.4 mph 5.6 mph 0 % 0 in
05:44 32 °F 55.4 °F 30 in WSW 4.9 mph 6.3 mph 0 % 0 in
05:49 32 °F 55.4 °F 30 in WSW 0.9 mph 6.3 mph 0 % 0 in
05:54 32 °F 55.4 °F 30 in WSW 0.9 mph 6.3 mph 0 % 0 in
05:59 32 °F 55.4 °F 30 in Calm   6.3 mph 0 % 0 in
06:04 32 °F 55.4 °F 30 in Calm   4.3 mph 0 % 0 in
06:10 32 °F 55.4 °F 30 in Calm   0.9 mph 0 % 0 in
06:15 32 °F 55.4 °F 30 in Calm     0 % 0 in
06:20 32 °F 55.4 °F 30 in Calm   3.1 mph 0 % 0 in
06:25 32 °F 55.4 °F 30 in Calm   3.1 mph 0 % 0 in
06:30 32 °F 55.4 °F 30 in WSW 4.7 mph 5.6 mph 0 % 0 in
06:35 32 °F 55.4 °F 30 in Calm   6 mph 0 % 0 in
06:40 32 °F 55.4 °F 30 in WSW 4.9 mph 6 mph 0 % 0 in
06:45 32 °F 55.4 °F 30 in SW 4.9 mph 6 mph 0 % 0 in
06:50 32 °F 55.4 °F 30 in Calm   6 mph 0 % 0 in
06:55 32 °F 55.4 °F 30 in Calm   4.9 mph 0 % 0 in
07:00 32 °F 55.4 °F 29.9 in WSW 3.1 mph 3.1 mph 0 % 0 in
07:05 32 °F 55.4 °F 29.9 in Calm   3.1 mph 0 % 0 in
07:10 32 °F 55.4 °F 29.9 in Calm   2.7 mph 0 % 0 in
07:12 32 °F 55.4 °F 29.9 in Calm     0 % 0 in
07:17 32 °F 55.4 °F 30 in Calm     0 % 0 in
07:22 32 °F 55.4 °F 30 in Calm     0 % 0 in
07:27 32 °F 55.4 °F 30 in Calm     0 % 0 in
07:32 32 °F 55.4 °F 30 in Calm     0 % 0 in
07:37 32 °F 55.4 °F 30 in Calm     0 % 0 in
07:42 32 °F 55.4 °F 30 in SSW 1.1 mph 1.1 mph 0 % 0 in
07:47 32 °F 55.4 °F 29.9 in Calm   1.1 mph 0 % 0 in
07:52 32 °F 55.4 °F 29.9 in Calm   2.2 mph 0 % 0 in
07:57 32 °F 55.4 °F 29.9 in Calm   2.2 mph 0 % 0 in
08:02 32 °F 55.4 °F 30 in SW 3.8 mph 3.8 mph 0 % 0 in
08:07 32 °F 55.4 °F 30 in SSW 3.6 mph 3.8 mph 0 % 0 in
08:12 32 °F 55.4 °F 30 in SSW 2.2 mph 3.8 mph 0 % 0 in
08:17 32 °F 55.4 °F 30 in Calm   3.8 mph 0 % 0 in
08:23 32 °F 55.4 °F 30 in Calm   2.9 mph 0 % 0 in
08:28 32 °F 55.4 °F 30 in Calm   4.9 mph 0 % 0 in
08:33 32 °F 55.4 °F 30 in Calm   5.6 mph 0 % 0 in
08:38 32 °F 55.4 °F 30 in Calm   5.8 mph 0 % 0 in
08:43 32 °F 55.4 °F 30 in SW 4 mph 6.5 mph 0 % 0 in
08:48 32 °F 55.4 °F 30 in SSW 3.1 mph 6.5 mph 0 % 0 in
08:53 32 °F 55.4 °F 30 in SSW 4.3 mph 6.5 mph 0 % 0 in
08:58 32 °F 55.4 °F 30 in South 2.9 mph 6.3 mph 0 % 0 in
09:08 32 °F 55.4 °F 30 in SW 3.4 mph 6.5 mph 0 % 0 in
09:13 32 °F 55.4 °F 30 in Calm   6.5 mph 0 % 0 in
09:18 56.8 °F 57.2 °F 30 in SW 5.4 mph 7.6 mph 98 % 0 in
09:23 56.8 °F 55.4 °F 30 in SSW 3.8 mph 7.6 mph 97 % 0 in
09:28 56.8 °F 55.4 °F 30 in South 2.9 mph 6 mph 97 % 0 in
09:33 56.8 °F 55.4 °F 30 in Calm   6.7 mph 97 % 0 in
09:38 57.2 °F 57.2 °F 30 in SW 3.6 mph 6.7 mph 97 % 0 in
09:43 57.2 °F 57.2 °F 30 in SSW 4.7 mph 6.5 mph 96 % 0 in
09:49 57.2 °F 57.2 °F 30 in South 5.4 mph 6.5 mph 96 % 0 in
09:54 57.2 °F 57.2 °F 30 in SSW 3.6 mph 6.3 mph 96 % 0 in
09:59 57.2 °F 57.2 °F 30 in SW 5.4 mph 6.3 mph 96 % 0 in
10:04 57.2 °F 57.2 °F 30 in Calm   5.6 mph 96 % 0 in
10:09 58.3 °F 57.2 °F 30 in Calm   5.6 mph 96 % 0 in
10:14 58.5 °F 57.2 °F 30 in SW 5.6 mph 6.3 mph 96 % 0 in
10:19 58.6 °F 57.2 °F 30 in WSW 4.9 mph 6.9 mph 96 % 0 in
10:24 58.6 °F 57.2 °F 30 in WSW 5.4 mph 6.9 mph 96 % 0 in
10:29 58.6 °F 57.2 °F 30 in SW 4 mph 5.8 mph 96 % 0 in
10:34 58.5 °F 57.2 °F 30 in SW 7.2 mph 7.2 mph 95 % 0 in
10:39 58.5 °F 57.2 °F 30 in SW 3.8 mph 7.2 mph 95 % 0 in
10:44 58.5 °F 57.2 °F 30 in WSW 2 mph 7.2 mph 95 % 0 in
10:54 58.5 °F 57.2 °F 30 in Calm   6 mph 95 % 0.01 in
10:59 58.5 °F 57.2 °F 30 in Calm   6 mph 95 % 0.01 in
11:04 58.5 °F 57.2 °F 30 in WSW 3.4 mph 4.9 mph 95 % 0.01 in
11:09 59.4 °F 59 °F 30 in WSW 3.6 mph 5.6 mph 95 % 0.01 in
11:14 59.7 °F 59 °F 30 in WSW 4.3 mph 6.5 mph 96 % 0.01 in
11:19 59.7 °F 59 °F 30 in SW 2.7 mph 7.2 mph 96 % 0.01 in
11:24 60.8 °F 59 °F 30 in SSW 6 mph 7.2 mph 95 % 0.01 in
11:25 60.8 °F 59 °F 30 in West 3.8 mph 7.2 mph 95 % 0.01 in
11:30 61 °F 59 °F 30 in WSW 4.3 mph 9.6 mph 94 % 0.01 in
11:35 61.3 °F 59 °F 30 in Calm   9.6 mph 94 % 0.01 in
11:40 61.3 °F 59 °F 30 in SW 3.6 mph 8.7 mph 94 % 0.01 in
11:45 61.3 °F 59 °F 30 in WSW 3.6 mph 8.7 mph 94 % 0.01 in
11:50 62.6 °F 60.8 °F 30 in WSW 5.4 mph 8.7 mph 92 % 0.01 in
11:55 62.6 °F 60.8 °F 30 in WSW 6.5 mph 8.7 mph 91 % 0 in
12:00 62.6 °F 60.8 °F 30 in WSW 7.4 mph 8.5 mph 91 % 0 in
12:05 62.8 °F 60.8 °F 30 in WSW 4 mph 8.5 mph 91 % 0 in
12:10 62.8 °F 60.8 °F 30 in WSW 5.4 mph 8.7 mph 91 % 0 in
12:15 62.8 °F 60.8 °F 30 in SW 7.6 mph 10.5 mph 91 % 0 in
12:20 62.8 °F 60.8 °F 30 in WSW 9.6 mph 10.5 mph 91 % 0 in
12:25 63 °F 59 °F 30 in WSW 5.6 mph 13 mph 88 % 0 in
12:30 63 °F 59 °F 30 in WSW 6.9 mph 13 mph 87 % 0 in
12:35 62.8 °F 59 °F 30 in WSW 8.1 mph 12.5 mph 87 % 0 in
12:40 63 °F 59 °F 30 in WSW 8.7 mph 12.5 mph 88 % 0 in
12:45 63.1 °F 59 °F 30 in WSW 13.2 mph 13.2 mph 87 % 0 in
12:50 63.1 °F 59 °F 30 in WSW 12.3 mph 13.2 mph 87 % 0 in
12:55 63.7 °F 59 °F 30 in WSW 7.6 mph 13.2 mph 85 % 0 in
13:00 63.7 °F 59 °F 30 in West 11.2 mph 15.4 mph 83 % 0 in
13:06 63.9 °F 59 °F 30 in West 10.1 mph 15.4 mph 83 % 0 in
13:11 64.4 °F 59 °F 30 in WSW 7.6 mph 15.2 mph 84 % 0 in
13:16 64.9 °F 60.8 °F 30 in West 7.4 mph 13.2 mph 84 % 0 in
13:21 64.9 °F 59 °F 30 in WSW 12.1 mph 15.4 mph 81 % 0 in
13:26 64.4 °F 59 °F 30 in West 13.2 mph 15.4 mph 80 % 0 in
13:31 63.9 °F 57.2 °F 30 in SW 13 mph 15.7 mph 81 % 0 in
13:36 64.4 °F 59 °F 30 in West 10.3 mph 15.7 mph 81 % 0 in
13:41 65.8 °F 60.8 °F 30 in West 8.7 mph 13.9 mph 82 % 0 in
13:46 66 °F 59 °F 30 in WSW 8.7 mph 14.8 mph 78 % 0 in
13:51 66.4 °F 59 °F 30 in West 11.2 mph 17 mph 77 % 0 in
13:56 65.5 °F 57.2 °F 30 in West 10.7 mph 17 mph 76 % 0 in
14:01 65.3 °F 57.2 °F 30 in West 8.5 mph 17 mph 75 % 0 in
14:06 64.8 °F 57.2 °F 30 in West 10.7 mph 17 mph 75 % 0 in
14:11 64.8 °F 57.2 °F 30 in West 9.4 mph 15.7 mph 76 % 0 in
14:16 65.3 °F 59 °F 30 in West 14.5 mph 15.4 mph 77 % 0 in
14:21 65.1 °F 57.2 °F 30 in WSW 5.6 mph 14.5 mph 77 % 0 in
14:26 65.1 °F 57.2 °F 30 in WSW 7.6 mph 14.3 mph 77 % 0 in
14:31 64.6 °F 57.2 °F 30 in WSW 13.2 mph 14.3 mph 76 % 0 in
14:36 65.7 °F 57.2 °F 30 in WSW 12.3 mph 17 mph 74 % 0 in
14:41 65.5 °F 57.2 °F 30 in WSW 8.1 mph 17 mph 74 % 0 in
14:46 65.5 °F 57.2 °F 30 in WNW 10.1 mph 16.6 mph 76 % 0 in
14:51 65.1 °F 57.2 °F 30 in WSW 13.4 mph 17.2 mph 74 % 0 in
14:56 65.7 °F 57.2 °F 30 in WSW 16.3 mph 17.2 mph 75 % 0 in
15:01 65.3 °F 57.2 °F 30 in West 9.8 mph 16.3 mph 75 % 0 in
15:06 65.1 °F 57.2 °F 30 in WSW 6 mph 13.4 mph 75 % 0 in
15:12 65.3 °F 57.2 °F 30 in WSW 15.2 mph 16.8 mph 75 % 0 in
15:20 65.5 °F 57.2 °F 30 in West 7.6 mph 15.4 mph 75 % 0 in
15:25 65.8 °F 57.2 °F 30 in West 11.2 mph 15.4 mph 75 % 0 in
15:30 66.2 °F 57.2 °F 30 in West 12.8 mph 16.1 mph 74 % 0 in
15:35 65.1 °F 55.4 °F 30 in West 13.2 mph 16.8 mph 73 % 0 in
15:40 64.8 °F 57.2 °F 30 in WSW 6.5 mph 16.8 mph 74 % 0 in
15:45 64.8 °F 57.2 °F 30 in West 10.7 mph 15.4 mph 74 % 0 in
15:50 64.4 °F 57.2 °F 30 in WSW 13.2 mph 13.2 mph 77 % 0 in
15:55 64.2 °F 57.2 °F 30 in WSW 6 mph 13.2 mph 78 % 0 in
16:00 64.2 °F 57.2 °F 30 in WSW 10.1 mph 13 mph 78 % 0 in
16:15 63.5 °F 57.2 °F 30 in WSW 10.3 mph 14.8 mph 81 % 0 in
16:20 63.3 °F 57.2 °F 30 in West 8.5 mph 15.4 mph 81 % 0 in
16:25 63.3 °F 57.2 °F 30 in SW 8.1 mph 15.4 mph 80 % 0 in
16:30 63.3 °F 57.2 °F 30 in WSW 7.6 mph 13.4 mph 80 % 0 in
16:36 63.1 °F 57.2 °F 30 in West 8.5 mph 16.6 mph 80 % 0 in
16:41 63.1 °F 57.2 °F 30 in WSW 10.7 mph 16.6 mph 80 % 0 in
16:46 63.1 °F 57.2 °F 30 in West 12.3 mph 13.4 mph 80 % 0 in
16:51 63 °F 57.2 °F 30 in SW 7.6 mph 14.3 mph 80 % 0 in
16:56 62.8 °F 57.2 °F 30 in WSW 11.9 mph 14.3 mph 81 % 0 in
17:01 62.8 °F 57.2 °F 30 in West 7.6 mph 12.5 mph 82 % 0 in
17:06 62.8 °F 57.2 °F 30 in WSW 9.6 mph 12.5 mph 82 % 0 in
17:11 62.6 °F 57.2 °F 30 in West 8.7 mph 13.9 mph 81 % 0 in
17:16 62.4 °F 57.2 °F 30 in WSW 8.5 mph 13.9 mph 82 % 0 in
17:21 62.2 °F 57.2 °F 30 in WSW 7.4 mph 11 mph 83 % 0 in
17:26 62.1 °F 57.2 °F 30 in WSW 7.8 mph 11 mph 83 % 0 in
17:31 61.9 °F 57.2 °F 30 in WSW 9.4 mph 11 mph 83 % 0 in
17:36 61.9 °F 57.2 °F 30 in WSW 7.6 mph 13.2 mph 83 % 0 in
17:41 61.9 °F 57.2 °F 30 in West 5.6 mph 13.2 mph 84 % 0 in
17:46 61.9 °F 57.2 °F 30 in West 6.5 mph 12.3 mph 84 % 0 in
17:51 61.9 °F 57.2 °F 30 in WSW 8.9 mph 15.2 mph 84 % 0 in
17:56 61.7 °F 57.2 °F 30 in WSW 7.4 mph 15.2 mph 83 % 0 in
18:01 61.7 °F 57.2 °F 30 in West 11 mph 14.5 mph 83 % 0 in
18:06 61.7 °F 57.2 °F 30 in WSW 8.1 mph 14.8 mph 83 % 0 in
18:11 61.7 °F 57.2 °F 30 in WSW 8.1 mph 14.8 mph 83 % 0 in
18:16 61.7 °F 57.2 °F 30 in WSW 8.1 mph 13.6 mph 83 % 0 in
18:21 61.3 °F 55.4 °F 30 in West 7.8 mph 13.6 mph 83 % 0 in
18:26 61.2 °F 55.4 °F 30 in WSW 6.3 mph 10.3 mph 83 % 0 in
18:31 61.2 °F 55.4 °F 30 in WSW 8.7 mph 9.2 mph 83 % 0 in
18:36 61 °F 55.4 °F 30 in SW 6 mph 9.2 mph 83 % 0 in
18:41 61 °F 55.4 °F 30 in West 8.7 mph 8.7 mph 84 % 0 in
18:46 61 °F 55.4 °F 30 in WSW 12.3 mph 12.3 mph 84 % 0 in
18:51 61 °F 55.4 °F 30 in West 10.3 mph 14.3 mph 84 % 0 in
18:56 60.6 °F 55.4 °F 30 in WSW 7.2 mph 14.3 mph 84 % 0 in
19:02 60.4 °F 55.4 °F 30 in WSW 10.7 mph 13.6 mph 85 % 0 in
19:07 60.1 °F 57.2 °F 30 in WSW 12.5 mph 20.4 mph 87 % 0 in
19:12 59.7 °F 57.2 °F 30 in WSW 7.4 mph 20.4 mph 89 % 0 in
19:17 59.7 °F 57.2 °F 30 in WSW 7.8 mph 13.4 mph 89 % 0 in
19:22 59.4 °F 57.2 °F 30 in WSW 8.5 mph 13.4 mph 90 % 0 in
19:27 59.4 °F 57.2 °F 30 in SSW 5.4 mph 10.1 mph 90 % 0 in
19:32 59.2 °F 57.2 °F 30 in SW 4.9 mph 10.7 mph 91 % 0 in
19:37 59.2 °F 57.2 °F 30 in WSW 10.1 mph 10.7 mph 91 % 0 in
19:42 59.2 °F 57.2 °F 30 in WSW 4.3 mph 10.3 mph 91 % 0 in
19:47 59 °F 57.2 °F 30 in SW 8.5 mph 10.3 mph 91 % 0 in
19:52 58.8 °F 57.2 °F 30 in SSW 7.8 mph 10.5 mph 92 % 0 in
19:57 58.8 °F 57.2 °F 30 in SSW 5.8 mph 10.5 mph 93 % 0 in
20:02 58.8 °F 57.2 °F 30 in WSW 7.6 mph 10.3 mph 93 % 0 in
20:07 58.8 °F 57.2 °F 30 in WSW 6.5 mph 10.1 mph 93 % 0 in
20:12 58.8 °F 57.2 °F 30 in SW 6.5 mph 7.6 mph 93 % 0 in
20:17 58.8 °F 57.2 °F 30 in SW 7.6 mph 7.6 mph 93 % 0 in
20:22 58.6 °F 57.2 °F 30 in SW 5.6 mph 8.5 mph 93 % 0 in
20:27 58.6 °F 57.2 °F 30 in SW 5.8 mph 8.5 mph 93 % 0 in
20:32 58.6 °F 57.2 °F 30 in SW 6 mph 10.5 mph 93 % 0 in
20:42 58.6 °F 55.4 °F 30 in SW 7.4 mph 9.8 mph 92 % 0 in
20:47 58.6 °F 55.4 °F 30 in WSW 8.1 mph 10.7 mph 92 % 0 in
20:52 58.6 °F 55.4 °F 30 in SSW 8.1 mph 10.7 mph 92 % 0 in
20:57 58.6 °F 55.4 °F 30 in WSW 8.1 mph 10.7 mph 92 % 0 in
21:02 58.6 °F 55.4 °F 30 in SW 5.6 mph 8.7 mph 92 % 0 in
21:08 58.6 °F 55.4 °F 30 in SW 5.8 mph 9.6 mph 92 % 0 in
21:13 58.6 °F 55.4 °F 30 in WSW 7.4 mph 10.3 mph 92 % 0 in
21:18 58.6 °F 55.4 °F 30 in SSW 7.8 mph 10.3 mph 92 % 0 in
21:23 58.5 °F 55.4 °F 30 in SW 4.3 mph 10.1 mph 92 % 0 in
21:28 58.5 °F 55.4 °F 30 in SSW 6.3 mph 8.1 mph 92 % 0 in
21:33 58.5 °F 55.4 °F 30 in WSW 5.4 mph 8.1 mph 92 % 0 in
21:38 58.3 °F 55.4 °F 30 in SSW 6 mph 10.5 mph 92 % 0 in
21:43 58.3 °F 55.4 °F 30 in WSW 5.4 mph 10.5 mph 92 % 0 in
21:48 58.1 °F 55.4 °F 30 in WSW 5.4 mph 8.5 mph 92 % 0 in
21:53 58.1 °F 55.4 °F 30 in South 4 mph 8.5 mph 92 % 0 in
21:58 58.1 °F 55.4 °F 30 in SW 8.1 mph 8.5 mph 92 % 0 in
22:03 57.9 °F 55.4 °F 30 in South 3.8 mph 8.5 mph 92 % 0 in
22:08 57.9 °F 55.4 °F 30 in SSW 5.8 mph 8.1 mph 92 % 0 in
22:13 57.9 °F 55.4 °F 30 in WSW 5.4 mph 8.1 mph 92 % 0 in
22:18 57.9 °F 55.4 °F 30 in WSW 4.7 mph 7.4 mph 92 % 0 in
22:23 57.9 °F 55.4 °F 30 in SW 8.5 mph 8.5 mph 93 % 0 in
22:29 57.7 °F 55.4 °F 30 in SW 4.9 mph 8.5 mph 93 % 0 in
22:34 57.7 °F 55.4 °F 30 in SSW 6.3 mph 6.3 mph 93 % 0 in
22:39 57.7 °F 55.4 °F 30 in SSW 4.5 mph 8.1 mph 93 % 0 in
22:44 57.9 °F 55.4 °F 30 in SW 7.8 mph 8.1 mph 93 % 0 in
22:49 57.9 °F 55.4 °F 30 in SSW 7.4 mph 7.8 mph 93 % 0 in
22:54 57.9 °F 55.4 °F 30 in WSW 6.3 mph 7.6 mph 93 % 0 in
22:59 57.9 °F 55.4 °F 30 in SSW 6.3 mph 8.7 mph 93 % 0 in
23:04 57.9 °F 55.4 °F 30 in WSW 4.9 mph 8.7 mph 93 % 0 in
23:09 57.9 °F 55.4 °F 30 in WSW 7.6 mph 8.5 mph 93 % 0 in
23:14 57.7 °F 55.4 °F 30 in WSW 3.6 mph 8.5 mph 93 % 0 in
23:19 57.6 °F 55.4 °F 30 in SSW 4 mph 8.5 mph 93 % 0 in
23:24 57.6 °F 55.4 °F 30 in SW 5.6 mph 8.5 mph 93 % 0 in
23:34 57.4 °F 55.4 °F 30 in SSW 5.4 mph 8.5 mph 93 % 0 in
23:39 57.2 °F 55.4 °F 30 in WSW 7.6 mph 7.6 mph 93 % 0 in
23:44 57.2 °F 55.4 °F 30 in WSW 4.9 mph 7.6 mph 93 % 0 in
23:49 57.6 °F 55.4 °F 30 in SW 4.7 mph 7.6 mph 94 % 0 in
23:54 57.6 °F 55.4 °F 30 in SSW 4.9 mph 7.4 mph 94 % 0 in
23:59 57.6 °F 55.4 °F 30 in WSW 6.9 mph 7.8 mph 94 % 0 in
Le Gheer Warneton
Courtoisie de Weather Underground - 2.25 mb

Mise a jour : 17-12-17 03:24:12
Généré par Cumulus 1.9.4 (1099)